RH
27 28 28 29 29 29 28 26 26 27 30 34 41 53 55 49 35 46 40 36 38 42 45 50 52 52 47 41 91 99 96 96 99 99 99 99 87 89 94 92 98 97 97
28 28 28 29 30 32 34 33 32 29 31 33 39 54 57 57 52 36 39 37 33 35 39 44 43 61 67 53 48 62 100 100 99 100 98 83 99 100 98 98 97 99 97
27 27 28 29 30 32 35 34 33 33 32 36 40 48 55 62 63 53 38 36 36 31 32 36 40 51 51 56 61 63 73 81 82 86 77 72 71 86 99 98 98 98 98
28 27 28 29 32 33 33 34 35 36 34 39 43 45 56 67 66 62 56 40 30 30 29 32 35 36 39 42 58 67 81 98 98 96 81 83 80 67 77 79 93 97 98
31 31 31 32 32 34 34 35 37 41 41 42 41 39 42 53 63 64 63 57 43 35 33 30 26 24 27 29 32 33 46 53 56 60 62 65 77 66 58 65 61 66 67
37 35 35 34 34 34 36 38 40 40 41 42 43 44 43 46 49 54 60 63 61 48 38 33 33 35 31 28 28 31 34 36 36 39 39 46 48 61 62 77 54 37 40
34 36 36 37 36 36 37 38 39 40 41 40 40 41 42 44 49 54 55 56 56 52 45 39 35 34 37 38 36 38 38 36 37 37 38 33 40 52 70 69 72 55 39
29 28 28 28 30 34 36 36 36 37 41 42 43 44 43 41 41 42 44 48 51 51 51 49 48 47 46 49 50 50 49 46 45 43 45 42 42 41 56 56 58 53 35
25 24 25 26 26 28 30 33 37 36 35 35 37 39 44 46 49 49 49 46 46 44 43 44 48 48 48 53 60 62 62 57 54 52 53 52 49 45 44 56 50 53 39
22 21 20 21 22 23 26 31 34 38 40 40 36 38 39 39 46 55 62 60 55 53 52 52 54 58 59 64 71 68 70 62 64 63 63 65 63 63 53 49 55 58 55
21 19 17 16 15 16 16 24 34 42 47 50 49 47 46 45 46 52 58 66 72 69 64 59 58 60 63 68 75 77 74 76 72 75 74 74 71 64 60 54 50 52 48
16 15 15 15 14 14 13 14 18 44 62 64 63 61 65 66 66 63 59 58 64 68 70 72 75 76 74 73 75 72 72 75 75 75 77 76 77 71 60 62 63 58 53
16 15 14 12 12 12 15 16 19 27 52 74 86 83 77 75 73 72 72 73 75 75 76 75 74 72 70 66 68 76 80 78 80 83 80 75 72 74 82 82 78 71 65
14 13 13 14 14 14 16 20 25 27 36 40 42 59 84 85 86 97 97 91 88 94 99 94 84 75 72 72 71 70 71 73 82 87 86 86 94 96 91 96 95 88 81
14 14 15 17 18 18 18 20 19 16 19 20 18 28 41 42 48 76 93 99 99 100 99 99 97 90 90 80 75 71 74 78 78 80 88 100 98 98 99 100 100 100 96
17 17 18 18 19 20 21 21 18 18 17 15 15 16 15 18 27 33 43 49 59 68 79 84 91 91 96 96 86 77 79 84 87 87 100 100 97 99 100 99 100 100 100
22 22 23 23 22 21 22 22 23 17 17 16 15 13 14 21 22 21 26 30 37 47 64 88 86 83 87 88 88 84 81 84 94 90 92 94 100 100 100 99 99 100 99
24 26 28 28 27 26 26 26 26 26 25 20 16 17 16 17 19 25 29 41 50 58 99 100 100 100 95 89 89 91 90 89 94 95 98 99 98 100 100 100 100 100 100
29 28 30 34 33 32 32 33 32 31 31 29 25 18 19 23 24 34 72 100 100 100 100 100 100 98 99 100 99 99 97 93 92 90 88 92 95 96 96 96 98 98 99
35 35 36 40 39 36 37 39 37 36 35 32 31 27 31 39 35 43 96 100 99 99 100 98 96 97 97 95 95 94 94 94 94 94 88 90 92 90 90 97 96 95 94
43 43 40 45 44 42 41 40 38 37 38 40 38 38 51 89 96 93 91 97 96 97 96 89 91 97 92 98 88 98 98 98 98 98 90 90 96 95 100 100 99 98 99
46 46 47 49 48 46 42 37 35 45 53 59 54 55 66 87 86 77 87 87 93 96 99 99 100 100 100 99 100 99 98 98 98 96 93 97 94 95 97 98 98 96 100
41 40 38 38 38 38 39 41 54 64 68 76 77 79 86 90 92 87 95 93 91 96 99 98 100 100 100 100 99 97 97 98 99 100 100 94 95 96 96 97 98 97 98
37 37 39 41 46 53 63 71 76 76 90 96 93 91 92 92 84 98 94 90 90 99 98 100 100 100 100 99 98 97 96 98 100 99 98 98 97 96 97 97 97 96 98
38 40 43 51 64 89 100 100 100 100 99 100 100 96 83 88 97 96 96 96 98 100 100 99 99 98 97 96 99 99 100 98 98 98 97 97 96 96 97 97 97 97 98
45 47 54 72 100 100 100 99 99 100 100 100 100 95 93 96 95 98 99 97 92 96 97 98 99 99 98 98 97 97 97 96 96 96 96 97 98 98 97 98 96 96 97
Wind_Speed
16 18 18 18 19 19 19 18 18 19 19 20 20 21 21 19 19 18 17 16 15 15 14 15 16 16 15 15 14 13 13 13 20 24 23 22 19 16 16 16 17 17 18
16 17 17 18 18 19 19 19 19 20 19 20 20 20 20 20 19 20 20 18 18 17 16 16 16 15 18 16 15 14 15 15 17 21 18 18 16 14 14 12 10 14 17
15 16 16 16 17 18 19 19 20 21 20 20 19 20 20 20 21 21 21 20 19 19 19 19 18 17 18 18 17 17 16 14 16 19 23 18 17 13 12 10 9 10 13
15 15 16 16 17 18 18 18 18 18 19 18 19 18 19 21 22 22 23 22 22 21 21 21 21 20 20 19 19 19 18 18 18 21 23 20 20 15 14 13 9 7 10
14 15 16 16 16 17 17 17 17 17 17 17 19 19 19 20 22 22 22 23 22 22 22 22 23 22 21 20 21 21 22 23 23 24 24 22 21 20 18 17 14 13 13
15 16 17 17 18 18 17 16 17 16 17 17 17 18 19 19 20 20 22 23 23 25 26 25 24 24 24 22 21 22 22 24 25 26 26 25 24 22 18 18 17 15 10
15 17 18 18 18 19 19 18 18 19 18 18 18 18 19 19 19 19 21 23 24 24 25 25 26 26 25 24 24 24 23 23 24 24 26 25 25 23 21 21 21 19 17
13 15 16 18 19 20 20 20 20 20 20 20 19 19 21 20 19 20 20 22 24 24 24 25 25 26 25 25 26 27 26 24 23 23 26 25 23 20 23 23 22 22 19
13 15 17 18 19 20 21 21 21 21 21 21 20 20 20 19 18 19 22 23 25 25 24 24 25 26 25 24 26 28 29 29 25 26 28 26 24 23 22 22 24 23 20
14 15 16 18 19 20 20 20 20 21 22 21 20 19 19 20 19 18 19 21 24 24 23 22 22 23 23 22 24 26 30 30 25 25 26 25 23 23 23 25 25 27 23
15 15 16 17 19 20 22 21 22 22 21 21 21 20 19 18 18 18 18 19 20 22 22 21 20 20 20 21 22 24 27 26 25 25 26 27 26 25 24 24 24 22 24
16 17 19 20 21 21 22 22 21 20 21 20 20 20 19 18 17 18 17 16 17 19 20 19 18 18 19 20 22 23 24 25 26 25 26 28 30 29 25 22 21 20 21
19 21 22 22 22 22 23 22 22 21 21 21 22 21 20 20 20 19 18 19 19 18 18 19 20 19 19 19 20 21 20 21 22 24 26 28 26 24 23 23 23 23 22
20 21 21 21 21 21 20 20 21 21 21 22 23 25 25 24 22 20 21 22 22 22 22 23 24 25 24 22 20 19 20 20 21 23 23 23 25 23 23 22 22 24 24
21 21 21 22 22 22 20 20 21 20 23 24 24 24 26 26 24 26 26 27 27 27 29 30 31 28 28 27 24 22 20 20 20 20 21 21 22 23 24 22 22 23 26
22 22 21 23 23 23 23 25 22 23 23 23 23 24 25 26 25 25 26 27 28 30 33 35 37 35 32 31 29 27 24 22 21 20 19 20 22 24 25 25 24 26 28
24 23 23 23 23 23 24 26 29 26 25 25 25 26 28 30 31 31 29 30 32 31 30 30 32 33 33 31 29 28 27 23 21 20 21 21 21 22 24 25 27 27 29
25 25 26 25 24 24 25 26 27 29 31 31 27 28 30 32 31 30 29 29 29 25 24 26 28 29 31 31 29 28 27 23 22 21 21 21 20 20 21 22 24 27 29
27 28 27 26 26 25 26 27 28 30 32 33 33 29 29 31 31 29 28 25 26 28 28 28 29 30 30 30 30 28 27 24 24 24 25 24 24 23 25 24 24 23 24
28 29 29 28 27 27 29 31 33 34 35 35 34 34 32 31 31 32 31 29 29 29 30 31 32 31 32 31 30 28 26 26 26 27 25 25 26 27 27 26 26 25 24
28 29 28 27 28 29 32 34 36 36 35 36 36 34 30 27 28 29 30 32 33 33 33 33 32 31 30 32 31 30 28 27 26 24 27 28 27 27 23 24 25 24 24
25 25 25 27 30 33 36 37 36 35 36 36 36 34 32 31 33 31 32 34 33 32 34 34 35 32 30 31 32 31 29 25 23 24 26 26 27 26 23 23 24 24 25
25 27 29 31 33 35 36 37 37 37 36 35 35 35 34 35 33 33 36 34 31 33 34 33 35 31 30 29 25 25 26 26 26 24 24 26 25 24 23 24 23 23 24
28 31 33 36 36 37 36 37 37 36 34 35 34 34 35 34 33 34 35 33 33 34 33 32 31 30 29 29 26 26 26 26 25 25 25 26 25 24 24 24 24 25 25
31 34 36 36 36 34 31 30 29 32 32 32 34 35 34 31 32 34 34 32 36 36 32 33 29 29 28 26 25 24 23 24 26 27 26 25 26 25 25 25 26 25 25
35 35 34 33 29 28 28 29 29 30 30 32 35 33 31 32 33 33 33 35 34 34 34 31 30 29 28 24 24 26 27 28 27 26 25 26 26 25 25 26 28 26 25
Wind_Direction
305 303 304 304 302 302 304 306 306 305 304 300 294 288 289 290 291 290 291 289 287 287 284 283 289 297 299 303 268 269 270 269 276 287 292 301 309 305 299 277 295 310 317
314 311 308 304 301 300 300 301 302 302 303 301 295 286 285 287 287 286 287 286 286 284 284 283 285 286 291 298 301 292 271 272 277 286 300 315 315 316 318 323 307 308 312
323 319 318 316 311 305 302 299 296 297 296 297 295 290 289 286 285 284 285 286 285 284 284 281 281 279 280 288 291 292 297 301 299 299 310 316 316 317 311 314 310 305 304
336 334 333 331 325 320 316 310 306 302 299 295 294 293 289 287 286 285 283 285 284 283 283 282 281 281 279 278 275 278 284 283 285 284 293 302 305 312 305 295 289 290 290
349 351 352 348 340 331 325 322 318 314 309 302 299 298 294 287 285 287 286 286 283 282 282 282 284 286 283 280 277 276 273 273 275 277 281 288 293 299 306 311 292 280 275
360 2 1 358 354 348 343 335 329 324 319 314 310 305 300 295 292 290 289 286 283 283 284 285 285 285 286 287 283 280 276 274 276 278 282 283 286 291 297 300 301 310 304
9 7 3 0 359 357 354 348 341 335 329 324 319 314 308 303 300 293 288 285 284 282 282 284 286 286 286 286 286 284 281 278 277 281 280 281 279 282 282 283 287 292 288
4 1 0 0 1 0 358 353 349 344 340 333 324 315 308 304 301 297 292 288 287 286 285 285 285 285 285 286 286 284 283 281 280 281 282 287 286 282 270 275 279 280 279
349 349 351 352 354 354 355 354 352 347 344 338 334 329 322 315 307 299 294 291 290 289 287 286 286 286 287 285 283 281 282 280 282 283 284 285 285 284 277 270 273 281 282
343 346 347 346 346 347 347 347 347 346 345 344 341 337 332 327 323 316 310 302 298 298 295 292 290 289 290 286 280 280 279 281 283 279 278 278 277 275 273 271 271 271 270
335 338 339 341 340 339 337 339 338 339 338 341 341 343 340 334 328 322 317 311 309 306 306 305 300 296 291 287 282 279 281 286 282 276 274 275 274 273 272 271 270 267 262
331 333 333 333 332 330 329 328 328 329 330 333 335 336 339 339 337 328 326 324 319 315 315 312 307 301 298 294 288 286 285 284 281 278 272 269 270 274 276 274 273 269 260
326 326 327 326 327 327 327 327 326 328 327 325 325 325 327 331 334 331 328 327 325 321 321 318 316 313 306 299 294 290 287 284 282 277 276 278 278 276 273 269 267 268 262
318 322 325 326 329 330 330 334 333 334 332 329 326 320 316 316 318 324 324 321 319 317 318 314 311 310 310 307 302 298 292 288 283 279 279 278 278 271 268 267 266 268 268
315 319 322 323 324 327 328 330 329 331 330 326 327 323 321 317 314 310 307 305 305 306 306 302 302 305 305 303 304 303 299 294 288 286 283 278 269 268 266 269 267 268 265
308 312 313 314 317 319 320 321 321 322 322 320 320 321 318 313 311 305 302 300 296 294 293 292 291 296 297 299 300 301 299 297 297 295 284 274 271 269 270 273 272 268 272
302 305 306 308 309 311 315 318 318 321 321 321 320 320 319 313 309 309 307 303 299 298 295 295 294 295 295 295 296 297 296 293 287 289 289 285 280 272 270 271 271 270 268
301 300 300 303 304 307 312 314 317 319 319 321 322 319 315 315 314 312 310 310 310 307 302 300 298 297 296 295 294 293 294 287 280 289 292 296 295 288 279 274 270 270 272
298 296 296 296 299 303 308 314 315 316 315 315 317 316 316 316 315 315 320 315 309 308 308 305 300 296 295 298 295 292 288 279 270 277 284 285 289 288 280 276 275 273 273
298 297 296 292 296 300 305 309 311 312 310 311 313 315 316 316 316 314 312 308 304 302 303 304 305 300 296 294 295 292 284 275 268 276 280 285 286 285 277 270 269 270 269
302 301 299 292 292 297 301 304 306 305 306 307 309 312 313 308 302 302 308 306 306 303 301 298 298 299 294 291 290 289 280 272 269 271 279 282 284 290 279 268 269 268 268
301 302 300 295 294 296 300 302 303 305 305 304 307 310 312 307 305 308 310 310 307 305 304 300 297 294 298 294 290 286 280 270 275 280 281 280 284 281 273 269 268 266 267
302 303 302 299 298 299 301 301 300 302 303 303 306 307 306 306 307 307 307 308 307 306 305 299 300 294 298 296 291 285 281 278 281 281 279 285 283 276 271 268 266 263 264
301 303 303 302 301 300 298 297 297 297 297 298 301 303 304 305 307 303 306 308 310 308 303 301 299 298 296 291 287 284 283 284 281 276 277 279 277 272 267 265 264 263 262
299 302 301 300 298 295 291 290 290 295 296 296 300 302 307 309 306 305 306 308 307 304 306 306 300 297 296 290 290 284 279 279 279 276 273 272 272 269 267 266 264 264 263
297 299 299 299 291 287 286 286 287 291 292 294 300 306 309 307 304 308 309 300 308 305 302 300 297 293 292 289 286 284 282 282 277 272 272 272 269 266 263 262 265 268 264